STARLINK-4730, 53794

Orbit data source: Space-Track

STARLINK-4730, 53794 is a payload satellite owned by SpaceX/Seattle (US) in LEO that was launched on Sun, 11 Sep 2022 UTC via an FALCON 9 launch vehicle from the Air Force Eastern Test Range (AFETR). Payload-class satellites include a variety of spacecraft equipped with specific instruments for various scientific and technological missions. These include communications satellites like Starlink; space stations such as the ISS; scientific satellites like the Hubble; Earth observation satellites from companies like Planet Labs, Umbra, and HawkEye 360; GPS; miniature CubeSats for education and research; and military/defense satellites.

Loading next visibility...
Identifier
53794, 2022-111X
Orbit
LEO
Country
Flag of USUS
Related business
Manufacturer
SpaceX/Seattle
Mission
Operational Commercial Communications
Bus & Motor
STARLINK, Unknown motor
Mass
305 kg wet, ~290 kg dry
Launch date (UTC)
2022-09-11 (3 years ago)
Launch vehicle
FALCON 9
Launch site
Air Force Eastern Test Range (AFETR)
Object type
Payload
Rocket body
Debris
Shape & HBR
Box + 1 Pan, 10.1 m
Radar Cross Section
13.562 m², Large (>1 m²)

Expand to show TLE details & history
Last TLE update: 9 hours ago

TLE from 9 hours ago
0 STARLINK-4730
1 53794U 22111X   26035.34028573  .00001206  00000-0  93823-4 0  9991
2 53794  53.2171  63.6836 0001495  89.6157 270.5006 15.08844790188650
Epoch: 2026-02-04T08:10Z
TLE epoch observation values (Epoch: 2026-02-04T08:10:00.687Z)
Latitude
-0.00004°
Longitude
166.67244°
Altitude
540.617 km
Speed
7.593 km/s
True Right ascension
04h 14m 44s
True Declination
0° 00' 00"
Sunlit
Object was in daylight at epoch
Visualization orbit readout
Latitude
Unknown
Longitude
Unknown
Altitude
Unknown
Speed
Unknown
Apparent Right ascension
Unknown
Apparent Declination
Unknown
Sunlit
N/A
Visualization observer readout
Local Sidereal Time
18:49:51
Azimuth
Unknown
Elevation
Unknown
Doppler factor
Unknown
Orbital elements
Apogee altitude
541.008 km
Perigee altitude
538.939 km
Semi-major axis
6,918.111 km
Eccentricity
0.00015
Inclination
53.2171°
RAAN
63.6836°
Arg. of periapsis
89.6157°
True anomaly
270.48347°
Mean anomaly
270.5006°
Eccentric anomaly
270.49203°
Mean motion
3.77192 °/min
Orbital period
95.44 mins
BSTAR
0.000093823
Loading maneuver chart data...
Computing Atmospheric mass density...
Loading historical data...
Loading historical data...
Loading historical data...
Loading historical data...
Loading historical data...
Loading historical data...
Loading historical data...

Documentation

Showing up to 5 results
|